Please be sure to check the latest weather conditions by clicking the link and viewing our local weather information!

Check Weather

Welcome to Lakeway Airpark (3R9)

FromTheAir

We’re a community airpark nestled within the town of Lakeway, Texas (17 miles northwest of downtown Austin).

Lakeway Airpark, Inc. was formed by Lakeway residents and interested parties to own and manage Lakeway Airpark (3R9).

The Airpark is a privately owned not for profit public use airport for residents and guests of Lakeway. No public funds are used and the airport is supported by fees and fuel sales at the airport.

Lakeway Airpark is an unmanned facility open for use from Sunrise to Sunset seven days a week. Takeoffs and landings are not permitted at night, between Sunset and Sunrise, by City Ordinance.

Quick Weather Info

Available data for KAUS from the past 2 hours
AUSTIN, TX
Metar
KAUS 102153Z VRB03KT 10SM CLR 15/M03 A3035 RMK AO2 SLP279 T01501033

21:53 UTC

Wind: ° 3kt

Visibility: 10 SM

Sky:

Temp: 15 deg C / 59 deg F

Dewpoint: -3 deg C / 26.6 deg F

Pressure: 30.35 inHg

TAF
KAUS 101720Z 1018/1124 28004KT P6SM SKC FM110000 VRB03KT P6SM SKC